Location: Votelez
(50.0000°N, 15.0000°E)
Time: 11:08:29
(UTC+01:00)

ISS - Pass Details

Date: 22 February 2026
Orbit: 416 x 426 km, 51.6° (Epoch: 10 March)

Event Time Altitude Azimuth Distance (km) Brightness Sun altitude
Exits shadow 05:01:04 70° 326° (NNW) 448 -3.8 -19.4°
Maximum altitude 05:01:12 72° 350° (N) 444 -3.8 -19.4°
Drops below altitude 10° 05:04:33 10° 76° (ENE) 1,495 0.3 -18.9°
Sets 05:06:39 0° 78° (ENE) 2,358 1.7 -18.5°
